Kuiper-00111

operational
NORAD ID: 65149 Int'l Des: 2025-171 Owner: KUIP Country: US Constellation: kuiper
LEOCIRCULAR

Kuiper-00111について

説明を読み込み中...

リアルタイム位置

3D地球を読み込み中...

次回通過

高度履歴

Altitude vs Time

uPlot chart will show altitude changes over time

軌道要素

1 65149U 25171T 25352.49034201 .00002430 00000-0 34770-3 0 9994
2 65149 51.8958 172.1316 0008573 201.8020 158.2578 14.79940934 20659
Epoch: Dec 18, 2025 • Age: 10 hours

現在のステータス

高度 637.4 km
速度 7.54 km/s
衛星直下点 -12.59°S, 111.27°E
打ち上げ日 Aug 11, 2025
運用期間 0.3 years
タイプ internet

技術仕様

分類 Payload
質量 490.00 kg
乾燥質量 490.00 kg
総質量 490.00 kg
長さ 1.80 m
直径 0.70 m
スパン 5.00 m
形状 Box + 2 pan
製造者 KUIP
バスタイプ Kuiper
フェーズステータス In Orbit
所有者/国 KUIP/US

大規模コンステレーション

Loading constellations...